Flag for U.S.A. Weather past 2 weeks in Cambridge, Massachusetts, U.S.A.

Now
29 °F

Light snow. Overcast.


Feels Like: 16 °F
Forecast: 14 / 28 °F
Wind: 20 mph from Northeast

Location: Logan International Airport

Current Time: Jan 26, 2015 at 4:37:18 PM

Latest Report: Jan 26, 2015 at 3:54 PM


Visibility: 10 mi

Pressure: 30.04 "Hg

Humidity: 72%

Dew point: 21 °F

Location of CambridgeLocation

Historic Weather in Cambridge — Graph

°F

Cambridge temperature yesterday

Maximum temperature yesterday: 38 °F (at 10:54 AM)
Minimum temperature yesterday: 19 °F (at 11:54 PM)
Average temperature yesterday: 32 °F

Past Weeks' High & Low Weather Summary

 TemperatureHumidityPressure
High50 °F (Jan 18, 2:54 PM)100% (Jan 12, 2:57 PM)30.66 "Hg (Jan 12, 2:57 PM)
Low9 °F (Jan 17, 7:54 AM)25% (Jan 17, 1:54 PM)29.16 "Hg (Jan 24, 4:54 PM)
Average29 °F63%30.04 "Hg
* Reported Jan 11 2:54 PM — Jan 26 2:54 PM, Cambridge, Weather by CustomWeather, © 2014

Note: Actual official high and low records may vary slightly from our data, if they occured in-between our weather recording intervals... More about our weather records

Advertising

Cambridge weather history for previous 24 hours

 ConditionsComfort  
Time TempWeatherWind HumidityBarometerVisibility
2:54 PM
Jan 26
28 °FMore clouds than sun.18 mph75%30.05 "Hg10 mi
1:54 PM26 °FLight snow. Ice fog.15 mph84%30.06 "Hg3 mi
12:54 PM25 °FLight snow. Mostly cloudy.18 mph78%30.06 "Hg2 mi
11:54 AM22 °FLight snow. More clouds than sun.14 mph75%30.10 "Hg4 mi
10:54 AM20 °FLight snow. Overcast.16 mph74%30.13 "Hg7 mi
9:54 AM16 °FLight snow. Mostly cloudy.12 mph65%30.14 "Hg8 mi
8:54 AM14 °FCloudy.10 mph61%30.15 "Hg10 mi
7:54 AM12 °FOvercast.10 mph58%30.15 "Hg10 mi
6:54 AM11 °FMostly cloudy.9 mph56%30.14 "Hg10 mi
5:54 AM11 °FPassing clouds.10 mph56%30.13 "Hg10 mi
4:54 AM12 °FOvercast.9 mph53%30.13 "Hg10 mi
3:54 AM13 °FOvercast.7 mph54%30.11 "Hg10 mi
2:54 AM14 °FOvercast.12 mph51%30.09 "Hg10 mi
1:54 AM16 °FMostly cloudy.15 mph47%30.08 "Hg10 mi
12:54 AM17 °FPassing clouds.15 mph51%30.05 "Hg10 mi
11:54 PM
Jan 25
19 °FPassing clouds.16 mph52%30.04 "Hg10 mi
10:54 PM22 °FPassing clouds.12 mph48%30.00 "Hg10 mi
9:54 PM23 °FPassing clouds.14 mph48%29.98 "Hg10 mi
8:54 PM25 °FPassing clouds.8 mph46%29.96 "Hg10 mi
7:54 PM27 °FPassing clouds.9 mph45%29.93 "Hg10 mi
6:54 PM29 °FMostly cloudy.12 mph41%29.89 "Hg10 mi
5:54 PM31 °FMostly cloudy.12 mph41%29.81 "Hg10 mi
4:54 PM33 °FPassing clouds.12 mph40%29.77 "Hg10 mi
Weather by CustomWeather, © 2014

See weather overviewHow to use our weather pages